[[[{"header":{"parameterUnit":"kt","parameterCategory":2,"dx":1,"dy":1,"la1":30.253999710083008,"la2":30.299108505249023,"lo1":-89.0895004272461,"lo2":-89.04439544677734,"nx":28,"ny":28,"refTime":"2022-09-22T21:00:00:Z","depth":0,"parameterNumber":1,"parameterNumberName":"U-component_of_WINDS"},"data":[0.7187,0.7285,0.73,0.7418,0.7452,0.7536,0.7571,0.7617,0.7659,0.7761,0.7822,0.7849,0.7897,0.7975,0.8043,0.8053,0.8081,0.8103,0.8112,0.7997,0.7982,0.7968,0.7945,0.8109,0.8109,0.823,0.8231,0.8232,0.7097,0.713,0.7198,0.7273,0.7331,0.7317,0.7377,0.7427,0.7503,0.7555,0.7617,0.7709,0.7784,0.7827,0.7902,0.7949,0.7948,0.7968,0.7965,0.7973,0.785,0.7826,0.7967,0.7967,0.7967,0.7967,0.7967,0.7967,0.6936,0.6994,0.7049,0.7123,0.7165,0.7216,0.7275,0.7305,0.7373,0.7453,0.7459,0.7546,0.7603,0.7703,0.7741,0.7809,0.779,0.7818,0.7826,0.7832,0.7837,0.766,0.7823,0.7823,0.7823,0.7822,0.7822,0,0.6823,0.6832,0.6898,0.6969,0.7024,0.7081,0.7136,0.7173,0.7199,0.7254,0.7335,0.7384,0.7483,0.7561,0.7637,0.7671,0.7666,0.7667,0.7687,0.7685,0.7672,0.768,0.7478,0.7663,0.7662,0.7661,0.766,0.766,0.6662,0.6729,0.6795,0.684,0.6874,0.6947,0.6993,0.7011,0.706,0.7131,0.7183,0.7262,0.7327,0.7455,0.7493,0.7568,0.7566,0.7635,0.7578,0.7572,0.7568,0.7564,0.757,0.7646,0.7648,0.7649,0.7651,0,0.657,0.6596,0.6706,0.6765,0.6782,0.6852,0.6903,0.6963,0.6988,0.7075,0.7096,0.7136,0.7216,0.7243,0.7342,0.7354,0.7469,0.7466,0.7449,0.745,0.7514,0.7507,0.7718,0.7746,0.7576,0.7578,0.7579,0,0.6444,0.6532,0.6565,0.6628,0.6726,0.6742,0.6839,0.687,0.692,0.6989,0.6986,0.7051,0.7076,0.7145,0.7163,0.7262,0.7281,0.7297,0.7301,0.7298,0.7296,0.7326,0.7319,0.7307,0.7306,0.7305,0.7304,0,0.6298,0.642,0.6521,0.6554,0.6628,0.6675,0.6708,0.6765,0.6811,0.6876,0.6906,0.6981,0.7023,0.7081,0.7104,0.7064,0.7226,0.7176,0.7242,0.7242,0.7279,0.7276,0.7454,0.7303,0.7303,0.7302,0.7302,0,0.6201,0.6265,0.6408,0.6469,0.6501,0.6569,0.6643,0.6707,0.6767,0.6783,0.6834,0.6837,0.6927,0.6875,0.6999,0.694,0.6981,0.7004,0.7009,0.7021,0.6963,0.706,0.7225,0.7244,0.7028,0.7026,0.7024,0,0.6027,0.6179,0.6194,0.6331,0.6405,0.6397,0.6472,0.6526,0.6553,0.6621,0.6651,0.6729,0.6697,0.6725,0.6782,0.6818,0.6894,0.6809,0.6908,0.6911,0.6892,0.7044,0.7062,0.7185,0.6995,0.6998,0.7,0,0.5896,0.5985,0.6009,0.6046,0.612,0.6183,0.627,0.635,0.6394,0.6456,0.6529,0.664,0.662,0.6668,0.6679,0.6738,0.6843,0.6709,0.6711,0.6733,0.6983,0.7,0.702,0.6838,0.6841,0.6844,0.6977,0,0.5743,0.5823,0.5888,0.5972,0.6025,0.6113,0.6143,0.6195,0.6199,0.6227,0.6336,0.639,0.6475,0.6506,0.6513,0.6638,0.6622,0.6601,0.6555,0.6654,0.6698,0.6717,0.6485,0.6483,0.6482,0.6482,0,0,0.5571,0.5687,0.5703,0.5787,0.5833,0.5825,0.5916,0.5961,0.6051,0.6083,0.6057,0.6222,0.6268,0.6399,0.6432,0.6467,0.6492,0.6457,0.6606,0.662,0.6633,0.668,0.6698,0.648,0.6479,0.6479,0.6479,0,0.5522,0.5566,0.5655,0.5701,0.577,0.5795,0.5816,0.5884,0.5906,0.6014,0.6008,0.6078,0.6211,0.626,0.6303,0.6441,0.6434,0.6465,0.6528,0.6595,0.661,0.6623,0.6673,0.669,0.6476,0.6477,0.6477,0,0.5398,0.5447,0.5493,0.5597,0.5643,0.5721,0.5678,0.5763,0.5822,0.5812,0.592,0.5955,0.6025,0.6145,0.62,0.6178,0.638,0.6323,0.633,0.6337,0.6404,0.6422,0.6438,0.6227,0.6226,0.6225,0,0,0.5352,0.5427,0.5487,0.559,0.5618,0.5657,0.5703,0.5713,0.5774,0.5799,0.5844,0.5906,0.5983,0.6034,0.6108,0.6235,0.6252,0.629,0.6302,0.6312,0.6324,0.6393,0.6411,0.6221,0.6221,0.6221,0,0,0.5331,0.5404,0.5397,0.552,0.5577,0.5645,0.5707,0.5702,0.5772,0.5766,0.5789,0.5806,0.5919,0.5955,0.59,0.6093,0.6046,0.606,0.6066,0.6081,0.6093,0.6083,0.5867,0,0,0,0,0,0.5297,0.5394,0.5388,0.5413,0.5546,0.5648,0.5665,0.5686,0.5651,0.5699,0.5737,0.5727,0.5929,0.5881,0.5907,0.5969,0.6172,0.618,0.6189,0.6226,0.6242,0.6255,0,0,0,0,0,0,0.5307,0.5338,0.5385,0.5456,0.5486,0.5645,0.5591,0.5599,0.5646,0.5643,0.5719,0.5729,0.575,0.5869,0.5892,0.5951,0.5859,0.6175,0.6182,0.6189,0.6231,0.6244,0.6255,0,0,0,0,0,0.5315,0.534,0.5549,0.5455,0.5481,0.5531,0.5587,0.5594,0.5631,0.569,0.5699,0.5642,0.5751,0.5771,0.5883,0.594,0.5843,0.5852,0.618,0.6186,0.6191,0.6237,0,0,0,0,0,0,0.5321,0.5347,0.5554,0.5563,0.542,0.5523,0.5539,0.5589,0.5676,0.5685,0.5613,0.5609,0.5753,0.5768,0.5784,0.5935,0.5831,0.5839,0.5845,0.6184,0.6189,0.6193,0,0,0,0,0,0,0.5334,0.5355,0.5559,0.5514,0.5517,0.5515,0.553,0.5628,0.5677,0.5594,0.5593,0.561,0.5729,0.5767,0.5779,0.5932,0.5821,0.5829,0.5835,0.5838,0.6188,0.6192,0,0,0,0,0,0,0.5343,0.5361,0.5511,0.5514,0.5518,0.5618,0.5603,0.5739,0.5636,0.5591,0.5627,0.5623,0.5728,0.5741,0.5775,0.5924,0.593,0.5821,0.5827,0.5831,0.5833,0,0,0,0,0,0,0,0.5351,0.5227,0.5502,0.5515,0.5518,0.5644,0.5647,0.5649,0.5635,0.5631,0.5628,0.5625,0.5774,0.5783,0.5792,0.5917,0,0,0.582,0.5824,0,0,0,0,0,0,0,0,0.522,0.5225,0.5502,0.5504,0.5506,0.5645,0.5647,0.5649,0.5634,0.5632,0.5629,0.5626,0.5777,0.5784,0.5791,0,0,0,0,0,0,0,0,0,0,0,0,0,0,0,0.5502,0.5504,0,0.5645,0.5647,0.5648,0.5634,0.5632,0.5629,0.5627,0.5779,0.5785,0.5791,0,0,0,0,0,0,0,0,0,0,0,0,0,0,0,0,0,0,0,0,0,0,0,0,0,0,0,0,0,0,0,0,0,0,0,0,0,0,0,0,0,0,0,0,0,0,0,0,0,0,0,0,0,0,0,0,0,0,0,0,0,0,0,0,0,0,0,0,0]}],[{"header":{"parameterUnit":"kt","parameterCategory":2,"dx":1,"dy":1,"la1":30.253999710083008,"la2":30.299108505249023,"lo1":-89.0895004272461,"lo2":-89.04439544677734,"nx":28,"ny":28,"refTime":"2022-09-22T21:00:00:Z","depth":0,"parameterNumber":2,"parameterNumberName":"V-component_of_WINDS"},"data":[1.4995,1.5049,1.5044,1.5103,1.511,1.5148,1.5161,1.5177,1.5189,1.5235,1.526,1.5263,1.5273,1.5303,1.533,1.5331,1.5341,1.536,1.5357,1.5273,1.5261,1.5249,1.5234,1.5364,1.5364,1.5441,1.5442,1.5443,1.4924,1.4931,1.4963,1.499,1.5016,1.4993,1.5014,1.5037,1.5073,1.509,1.5117,1.5158,1.519,1.5196,1.5226,1.5249,1.524,1.5257,1.5252,1.5253,1.5165,1.5149,1.5263,1.5263,1.5263,1.5263,1.5263,1.5263,1.4793,1.4827,1.4842,1.4876,1.489,1.4909,1.494,1.4943,1.4975,1.5007,1.5,1.5041,1.5058,1.5096,1.5108,1.5139,1.512,1.5138,1.5141,1.5144,1.5146,1.5023,1.5146,1.5146,1.5145,1.5145,1.5145,0,1.4694,1.4688,1.4721,1.475,1.4776,1.4801,1.4822,1.4842,1.4832,1.486,1.4898,1.492,1.4964,1.4999,1.5029,1.5039,1.5018,1.5019,1.5029,1.5029,1.5024,1.502,1.487,1.5014,1.5013,1.5012,1.5012,1.5011,1.4555,1.4599,1.4616,1.4638,1.465,1.4689,1.4711,1.47,1.4723,1.4749,1.4781,1.4818,1.4846,1.4911,1.4915,1.4948,1.4938,1.4991,1.4942,1.494,1.493,1.4925,1.4927,1.4999,1.5001,1.5002,1.5003,0,1.4476,1.4473,1.454,1.4554,1.4559,1.4604,1.4615,1.4651,1.4652,1.47,1.4711,1.4712,1.4752,1.4748,1.4795,1.4791,1.4859,1.4852,1.4851,1.4847,1.489,1.4883,1.5043,1.5061,1.4933,1.4934,1.4935,0,1.4354,1.4414,1.4403,1.4443,1.4507,1.4495,1.4559,1.4566,1.4583,1.4621,1.4599,1.4635,1.4626,1.4661,1.4657,1.4714,1.4725,1.4723,1.472,1.4722,1.4721,1.4731,1.4722,1.4721,1.472,1.4719,1.4719,0,1.4225,1.4295,1.4359,1.4374,1.4397,1.4428,1.4439,1.4459,1.4483,1.4513,1.4527,1.4565,1.4584,1.4612,1.4605,1.4571,1.4677,1.4629,1.4675,1.4674,1.4695,1.4693,1.4839,1.4718,1.4717,1.4717,1.4717,0,1.4125,1.4157,1.4255,1.4271,1.429,1.4336,1.4369,1.4408,1.4431,1.4431,1.4456,1.444,1.4495,1.4446,1.4519,1.4476,1.4495,1.4501,1.4504,1.4504,1.4449,1.4524,1.4669,1.468,1.4509,1.4507,1.4505,0,1.3974,1.4075,1.4066,1.4161,1.4206,1.4175,1.4225,1.4248,1.4252,1.429,1.4295,1.4341,1.4305,1.4318,1.4356,1.4362,1.4419,1.4355,1.4403,1.4405,1.4391,1.4526,1.4545,1.4638,1.4484,1.4486,1.4488,0,1.3857,1.3888,1.3906,1.3921,1.3952,1.3992,1.4052,1.4094,1.4119,1.4152,1.4197,1.4266,1.4238,1.4263,1.4255,1.4294,1.438,1.4261,1.4261,1.4276,1.4475,1.4492,1.4508,1.4366,1.4368,1.437,1.447,0,1.3693,1.3746,1.3798,1.3839,1.387,1.3934,1.3931,1.3964,1.3952,1.3956,1.4028,1.4051,1.4096,1.4118,1.4109,1.4202,1.4185,1.4158,1.4107,1.4198,1.423,1.4244,1.4058,1.4057,1.4055,1.4054,0,0,1.3545,1.3623,1.3614,1.3673,1.3698,1.3667,1.3733,1.3755,1.3802,1.3819,1.3791,1.389,1.3911,1.3998,1.4027,1.4049,1.4063,1.4033,1.4156,1.4168,1.4178,1.4213,1.4227,1.4052,1.4052,1.4051,1.4051,0,1.3484,1.3508,1.3576,1.3598,1.363,1.3632,1.3649,1.3676,1.3682,1.3757,1.3729,1.3774,1.3858,1.3879,1.3902,1.4023,1.3999,1.4039,1.4101,1.4144,1.4157,1.4169,1.4205,1.4219,1.4048,1.4048,1.4048,0,1.3363,1.3383,1.3418,1.348,1.3502,1.3553,1.3499,1.3559,1.3595,1.3561,1.3635,1.3648,1.3681,1.3768,1.3807,1.3783,1.394,1.3895,1.3902,1.3905,1.3947,1.3963,1.3977,1.3791,1.379,1.379,0,0,1.331,1.3363,1.3383,1.3467,1.3482,1.3488,1.3517,1.3509,1.3539,1.3552,1.3568,1.3598,1.3645,1.3677,1.3723,1.382,1.3823,1.3863,1.3875,1.3885,1.3893,1.3938,1.3953,1.3786,1.3786,1.3786,0,0,1.3285,1.3311,1.3294,1.3393,1.3422,1.3448,1.3498,1.3479,1.352,1.3512,1.3503,1.3511,1.3593,1.3608,1.3562,1.3703,1.3654,1.3666,1.369,1.3706,1.3717,1.371,1.351,0,0,0,0,0,1.3222,1.3307,1.3292,1.3308,1.3389,1.3456,1.3466,1.346,1.3423,1.3462,1.3472,1.3447,1.3579,1.3538,1.3555,1.3606,1.3742,1.375,1.3757,1.3812,1.3828,1.3841,0,0,0,0,0,0,1.3228,1.3248,1.329,1.3319,1.3337,1.3453,1.3388,1.3389,1.3418,1.3412,1.3446,1.3448,1.3445,1.3529,1.3544,1.3593,1.3505,1.3745,1.3752,1.3758,1.3817,1.383,1.3841,0,0,0,0,0,1.3233,1.3249,1.3381,1.3318,1.3334,1.3345,1.3385,1.3385,1.3408,1.3425,1.3427,1.34,1.3446,1.3458,1.3538,1.3586,1.3494,1.35,1.3749,1.3754,1.3759,1.3824,0,0,0,0,0,0,1.3237,1.325,1.3384,1.3389,1.3286,1.3339,1.3347,1.3382,1.3419,1.3421,1.3379,1.3373,1.3449,1.3457,1.3467,1.3584,1.3486,1.3491,1.3495,1.3753,1.3757,1.3761,0,0,0,0,0,0,1.3241,1.3254,1.3386,1.3346,1.3346,1.3333,1.334,1.3409,1.342,1.337,1.3367,1.3376,1.3434,1.3457,1.3464,1.3572,1.3479,1.3485,1.3489,1.3491,1.3757,1.376,0,0,0,0,0,0,1.3246,1.3257,1.3345,1.3345,1.3345,1.3394,1.3393,1.3477,1.3385,1.3369,1.3377,1.3373,1.3435,1.3442,1.3463,1.3568,1.3571,1.348,1.3483,1.3486,1.3488,0,0,0,0,0,0,0,1.325,1.3178,1.3358,1.3344,1.3343,1.343,1.3431,1.3432,1.3384,1.3381,1.3378,1.3374,1.3448,1.3454,1.346,1.3565,0,0,1.3479,1.3482,0,0,0,0,0,0,0,0,1.3173,1.3177,1.3358,1.3359,1.336,1.343,1.3431,1.3432,1.3384,1.3381,1.3378,1.3376,1.345,1.3455,1.346,0,0,0,0,0,0,0,0,0,0,0,0,0,0,0,1.3358,1.3359,0,1.343,1.3431,1.3432,1.3383,1.3381,1.3379,1.3377,1.3451,1.3455,1.3459,0,0,0,0,0,0,0,0,0,0,0,0,0,0,0,0,0,0,0,0,0,0,0,0,0,0,0,0,0,0,0,0,0,0,0,0,0,0,0,0,0,0,0,0,0,0,0,0,0,0,0,0,0,0,0,0,0,0,0,0,0,0,0,0,0,0,0,0,0]}]]]